2023/01/24 00:00:00, 0.0, 1.4
2023/01/24 00:10:00, 0.0, 1.4
2023/01/24 00:20:00, 0.0, 1.5
2023/01/24 00:30:00, 0.0, 1.8
2023/01/24 00:40:00, 0.0, 1.5
2023/01/24 00:50:00, 0.0, 1.6
2023/01/24 01:00:00, 0.0, 1.7
2023/01/24 01:10:00, 0.0, 1.7
2023/01/24 01:20:00, 0.0, 2.1
2023/01/24 01:30:00, 0.0, 1.8
2023/01/24 01:40:00, 0.0, 2.0
2023/01/24 01:50:00, 0.1, 2.0
2023/01/24 02:00:00, 0.0, 2.1
2023/01/24 02:10:00, 0.0, 2.2
2023/01/24 02:20:00, 0.1, 2.0
2023/01/24 02:30:00, 0.0, 1.8
2023/01/24 02:40:00, 0.0, 1.8
2023/01/24 02:50:00, 0.1, 1.7
2023/01/24 03:00:00, 0.0, 1.7
2023/01/24 03:10:00, 0.1, 1.4
2023/01/24 03:20:00, 0.1, 1.6
2023/01/24 03:30:00, 0.0, 1.5
2023/01/24 03:40:00, 0.0, 1.6
2023/01/24 03:50:00, 0.1, 1.6
2023/01/24 04:00:00, 0.2, 1.8
2023/01/24 04:10:00, 0.1, 1.4
2023/01/24 04:20:00, 0.1, 1.5
2023/01/24 04:30:00, 0.1, 1.1
2023/01/24 04:40:00, 0.1, 1.0
2023/01/24 04:50:00, 0.1, 0.6
2023/01/24 05:00:00, 0.1, 0.5
2023/01/24 05:10:00, 0.1, 0.4
2023/01/24 05:20:00, 0.1, 0.8
2023/01/24 05:30:00, 0.1, 1.5
2023/01/24 05:40:00, 0.1, 2.3
2023/01/24 05:50:00, 0.1, 2.2
2023/01/24 06:00:00, 0.1, 1.9
2023/01/24 06:10:00, 0.1, 1.0
2023/01/24 06:20:00, 0.1, 0.2
2023/01/24 06:30:00, 0.0, 0.0
2023/01/24 06:40:00, 0.0,-0.2
2023/01/24 06:50:00, 0.0,-0.2
2023/01/24 07:00:00, 0.0, 0.2
2023/01/24 07:10:00, 0.0, 0.0
2023/01/24 07:20:00, 0.0, 0.5
2023/01/24 07:30:00, 0.0, 0.2
2023/01/24 07:40:00, 0.0, 0.4
2023/01/24 07:50:00, 0.4,-0.5
2023/01/24 08:00:00, 0.5, 0.2
2023/01/24 08:10:00, 0.5,-0.1
2023/01/24 08:20:00, 0.4, 0.6
2023/01/24 08:30:00, 0.5, 0.1
2023/01/24 08:40:00, 0.8,-0.3
2023/01/24 08:50:00, 1.7,-0.4
2023/01/24 09:00:00, 1.9,-0.8
2023/01/24 09:10:00, 2.0,-0.7
2023/01/24 09:20:00, 2.5,-0.3
2023/01/24 09:30:00, 3.1,-0.5
2023/01/24 09:40:00, 4.0,-0.7
2023/01/24 09:50:00, 4.7,-1.0
2023/01/24 10:00:00, 4.9,-1.0
2023/01/24 10:10:00, 5.0,-1.3
2023/01/24 10:20:00, 5.4,-1.2
2023/01/24 10:30:00, 5.8,-1.2
2023/01/24 10:40:00, 6.2,-1.4
2023/01/24 10:50:00, 6.5,-1.1
2023/01/24 11:00:00, 6.5,-1.3
2023/01/24 11:10:00, 5.8,-1.6
2023/01/24 11:20:00, 5.2,-1.7
2023/01/24 11:30:00, 5.1,-2.3
2023/01/24 11:40:00, 5.5,-1.8
2023/01/24 11:50:00, 6.1,-0.8
2023/01/24 12:00:00, 6.1,-1.6
2023/01/24 12:10:00, 6.5,-1.2
2023/01/24 12:20:00, 6.6,-1.6
2023/01/24 12:30:00, 6.6,-1.4
2023/01/24 12:40:00, 6.5,-1.5
2023/01/24 12:50:00, 6.5,-1.5
2023/01/24 13:00:00, 6.2,-1.4
2023/01/24 13:10:00, 6.1,-1.4
2023/01/24 13:20:00, 6.1,-2.1
2023/01/24 13:30:00, 6.8,-1.7
2023/01/24 13:40:00, 8.6,-1.5
2023/01/24 13:50:00, 8.5,-1.2
2023/01/24 14:00:00, 8.5,-1.7
2023/01/24 14:10:00, 8.4,-2.4
2023/01/24 14:20:00, 8.4,-3.5
2023/01/24 14:30:00, 8.4,-3.9
2023/01/24 14:40:00, 8.8,-4.3
2023/01/24 14:50:00, 9.2,-4.7
2023/01/24 15:00:00, 9.8,-4.9
2023/01/24 15:10:00,11.2,-4.9
2023/01/24 15:20:00,12.7,-4.7
2023/01/24 15:30:00,13.9,-4.7
2023/01/24 15:40:00,15.4,-4.9
2023/01/24 15:50:00,16.5,-5.0
2023/01/24 16:00:00,17.5,-5.0
2023/01/24 16:10:00,19.0,-5.1
2023/01/24 16:20:00,19.6,-5.2
2023/01/24 16:30:00,20.5,-5.2
2023/01/24 16:40:00,21.0,-5.2
2023/01/24 16:50:00,21.4,-5.2
2023/01/24 17:00:00,21.7,-5.1
2023/01/24 17:10:00,21.9,-5.2
2023/01/24 17:20:00,22.2,-5.1
2023/01/24 17:30:00,23.0,-5.1
2023/01/24 17:40:00,23.9,-5.1
2023/01/24 17:50:00,24.6,-5.1
2023/01/24 18:00:00,25.4,-5.2
2023/01/24 18:10:00,25.8,-5.2
2023/01/24 18:20:00,25.7,-5.3
2023/01/24 18:30:00,26.1,-5.5
2023/01/24 18:40:00,26.5,-5.6
2023/01/24 18:50:00,26.4,-5.5
2023/01/24 19:00:00,26.1,-5.6
2023/01/24 19:10:00,25.8,-5.6
2023/01/24 19:20:00,25.8,-5.8
2023/01/24 19:30:00,26.1,-5.6
2023/01/24 19:40:00,26.0,-5.8
2023/01/24 19:50:00,26.1,-6.1
2023/01/24 20:00:00,26.7,-6.0
2023/01/24 20:10:00,26.4,-6.1
2023/01/24 20:20:00,26.2,-5.9
2023/01/24 20:30:00,26.7,-6.0
2023/01/24 20:40:00,27.6,-6.0
2023/01/24 20:50:00,28.0,-6.1
2023/01/24 21:00:00,28.4,-5.9
2023/01/24 21:10:00,28.7,-6.2
2023/01/24 21:20:00,28.6,-6.4
2023/01/24 21:30:00,28.4,-6.0
2023/01/24 21:40:00,28.3,-6.1
2023/01/24 21:50:00,28.4,-6.2
2023/01/24 22:00:00,28.6,-6.6
2023/01/24 22:10:00,28.6,-6.4
2023/01/24 22:20:00,28.5,-6.1
2023/01/24 22:30:00,28.6,-6.1
2023/01/24 22:40:00,28.7,-6.2
2023/01/24 22:50:00,28.9,-6.4
2023/01/24 23:00:00,29.2,-6.3
2023/01/24 23:10:00,29.2,-6.6
2023/01/24 23:20:00,29.0,-6.3
2023/01/24 23:30:00,28.9,-6.5
2023/01/24 23:40:00,28.9,-6.3
